Weather History for Detroit Lakes, MN

Change the Weather History Date:

Wednesday, April 9, 2014

  Actual Average Record
Temperature  
Mean Temperature 54 °F -  
Max Temperature 71 °F 49 °F 76 °F (1977)
Min Temperature 37 °F 27 °F 1 °F (1997)
Degree Days  
Heating Degree Days 11    
Growing Degree Days 4 (Base 50)    
Moisture  
Dew Point 36 °F    
Average Humidity 58    
Maximum Humidity 81    
Minimum Humidity 28    
Precipitation  
Precipitation 0.00 in - - ()
Sea Level Pressure  
Sea Level Pressure 29.61 in    
Wind  
Wind Speed 12 mph (SSW)    
Max Wind Speed 28 mph    
Max Gust Speed 36 mph    
Visibility 10 miles    
Events      
Averages and records for this station are not official NWS values.
T = Trace of Precipitation, MM = Missing Value Source: NWS Daily Summary

Daily Weather History Graph

Daily Weather History Graph

Search for Another Location

Airport:

Trip Planner

Search our weather history database for the weather conditions in past years. The results will help you decide how hot, cold, wet, or windy it might be!

Date:

Astronomy

Apr. 09, 2014 Rise Set
Actual Time 6:47 AM CDT 8:03 PM CDT
Civil Twilight 6:15 AM CDT 8:35 PM CDT
Nautical Twilight 5:38 AM CDT 9:13 PM CDT
Astronomical Twilight 4:58 AM CDT 9:53 PM CDT
Moon 2:34 PM CDT (4/9) 3:56 AM CDT (4/9)
Length of Visible Light 14h 19m
Length of Day
13h 16m
Waxing Gibbous, 72% of the Moon is Illuminated
Apr 9
Waxing Gibbous
Apr 15
Full
Apr 22
Last Quarter
Apr 29
New
May 6
First Quarter

Hourly Weather History & Observations

Time (CDT) Temp. Windchill Dew Point Humidity Pressure Visibility Wind Dir Wind Speed Gust Speed Precip Events Conditions
12:15 AM 37.4 °F 30.3 °F 32.0 °F 81% 29.86 in 10.0 mi South 10.4 mph - N/A   Clear
12:35 AM 37.4 °F 30.3 °F 32.0 °F 81% 29.85 in 10.0 mi SSE 10.4 mph - N/A   Clear
12:54 AM 37.4 °F 30.3 °F 32.0 °F 81% 29.84 in 10.0 mi SSE 10.4 mph - N/A   Clear
1:15 AM 39.2 °F 32.5 °F 32.0 °F 75% 29.83 in 10.0 mi SSE 10.4 mph - N/A   Clear
1:35 AM 39.2 °F 32.0 °F 32.0 °F 75% 29.83 in 10.0 mi SSE 11.5 mph - N/A   Scattered Clouds
1:54 AM 39.2 °F 31.6 °F 32.0 °F 75% 29.82 in 10.0 mi South 12.7 mph - N/A   Clear
2:15 AM 39.2 °F 32.0 °F 32.0 °F 75% 29.81 in 10.0 mi South 11.5 mph - N/A   Scattered Clouds
2:34 AM 39.2 °F 31.6 °F 32.0 °F 75% 29.80 in 10.0 mi South 12.7 mph - N/A   Scattered Clouds
2:55 AM 39.2 °F 31.6 °F 32.0 °F 75% 29.78 in 10.0 mi SSE 12.7 mph - N/A   Scattered Clouds
3:15 AM 39.2 °F 31.6 °F 32.0 °F 75% 29.77 in 10.0 mi South 12.7 mph - N/A   Clear
3:34 AM 39.2 °F 32.0 °F 32.0 °F 75% 29.76 in 10.0 mi South 11.5 mph - N/A   Scattered Clouds
3:55 AM 37.4 °F 29.8 °F 32.0 °F 81% 29.75 in 10.0 mi SSE 11.5 mph - N/A   Clear
4:14 AM 37.4 °F 29.3 °F 32.0 °F 81% 29.73 in 10.0 mi SSE 12.7 mph - N/A   Clear
4:35 AM 37.4 °F 29.3 °F 30.2 °F 75% 29.72 in 10.0 mi SSE 12.7 mph - N/A   Clear
4:55 AM 39.2 °F 32.5 °F 30.2 °F 70% 29.71 in 10.0 mi South 10.4 mph 17.3 mph N/A   Clear
5:14 AM 37.4 °F 30.8 °F 30.2 °F 75% 29.70 in 10.0 mi South 9.2 mph - N/A   Clear
5:35 AM 39.2 °F 32.5 °F 30.2 °F 70% 29.69 in 10.0 mi South 10.4 mph - N/A   Clear
5:55 AM 41.0 °F 33.9 °F 28.4 °F 61% 29.68 in 10.0 mi South 12.7 mph - N/A   Clear
6:14 AM 41.0 °F 33.5 °F 28.4 °F 61% 29.67 in 10.0 mi South 13.8 mph 18.4 mph N/A   Clear
6:35 AM 41.0 °F 33.9 °F 30.2 °F 65% 29.67 in 10.0 mi South 12.7 mph - N/A   Clear
6:55 AM 41.0 °F 34.7 °F 30.2 °F 65% 29.66 in 10.0 mi South 10.4 mph - N/A   Clear
7:14 AM 41.0 °F 34.3 °F 30.2 °F 65% 29.65 in 10.0 mi South 11.5 mph - N/A   Clear
7:35 AM 41.0 °F 35.2 °F 30.2 °F 65% 29.65 in 10.0 mi South 9.2 mph - N/A   Clear
7:55 AM 42.8 °F 36.6 °F 30.2 °F 61% 29.64 in 10.0 mi South 11.5 mph - N/A   Clear
8:14 AM 42.8 °F 37.0 °F 30.2 °F 61% 29.64 in 10.0 mi South 10.4 mph - N/A   Clear
8:35 AM 44.6 °F 39.2 °F 30.2 °F 57% 29.64 in 10.0 mi SSW 10.4 mph - N/A   Clear
8:55 AM 44.6 °F 39.7 °F 30.2 °F 57% 29.63 in 10.0 mi SSW 9.2 mph - N/A   Clear
9:14 AM 46.4 °F 41.9 °F 30.2 °F 53% 29.63 in 10.0 mi SSW 9.2 mph - N/A   Clear
9:35 AM 46.4 °F 42.4 °F 32.0 °F 57% 29.63 in 10.0 mi SSW 8.1 mph - N/A   Clear
9:54 AM 48.2 °F - 32.0 °F 54% 29.62 in 10.0 mi SSW 10.4 mph - N/A   Clear
10:15 AM 50.0 °F - 32.0 °F 50% 29.61 in 10.0 mi SW 10.4 mph - N/A   Clear
10:55 AM 51.8 °F - 33.8 °F 50% 29.59 in 10.0 mi SSW 8.1 mph - N/A   Clear
11:15 AM 51.8 °F - 33.8 °F 50% 29.59 in 10.0 mi SSW 10.4 mph - N/A   Clear
11:34 AM 51.8 °F - 33.8 °F 50% 29.59 in 10.0 mi SSW 10.4 mph - N/A   Clear
11:55 AM 53.6 °F - 35.6 °F 51% 29.57 in 10.0 mi SSW 10.4 mph - N/A   Clear
12:15 PM 53.6 °F - 35.6 °F 51% 29.57 in 10.0 mi SSW 10.4 mph - N/A   Clear
12:34 PM 55.4 °F - 35.6 °F 47% 29.56 in 10.0 mi SSW 11.5 mph - N/A   Clear
12:55 PM 55.4 °F - 35.6 °F 47% 29.55 in 10.0 mi South 11.5 mph - N/A   Clear
1:15 PM 57.2 °F - 35.6 °F 44% 29.54 in 10.0 mi South 11.5 mph - N/A   Clear
1:34 PM 59.0 °F - 37.4 °F 45% 29.54 in 10.0 mi SSW 12.7 mph - N/A   Clear
1:55 PM 60.8 °F - 37.4 °F 42% 29.54 in 10.0 mi SSW 11.5 mph - N/A   Clear
2:15 PM 60.8 °F - 39.2 °F 45% 29.53 in 10.0 mi SW 12.7 mph 16.1 mph N/A   Clear
2:34 PM 62.6 °F - 41.0 °F 45% 29.53 in 10.0 mi SW 13.8 mph 20.7 mph N/A   Clear
2:55 PM 62.6 °F - 42.8 °F 48% 29.51 in 10.0 mi SSW 12.7 mph - N/A   Clear
3:15 PM 64.4 °F - 42.8 °F 45% 29.51 in 10.0 mi SSW 16.1 mph - N/A   Clear
3:34 PM 66.2 °F - 42.8 °F 43% 29.50 in 10.0 mi SSW 15.0 mph 23.0 mph N/A   Clear
3:55 PM 66.2 °F - 44.6 °F 46% 29.48 in 10.0 mi SSW 12.7 mph - N/A   Clear
4:15 PM 68.0 °F - 44.6 °F 43% 29.47 in 10.0 mi SSW 13.8 mph - N/A   Clear
4:34 PM 69.8 °F - 42.8 °F 38% 29.46 in 10.0 mi SW 11.5 mph - N/A   Clear
4:55 PM 69.8 °F - 42.8 °F 38% 29.45 in 10.0 mi SW 15.0 mph 19.6 mph N/A   Clear
5:15 PM 69.8 °F - 44.6 °F 40% 29.44 in 10.0 mi SW 10.4 mph - N/A   Clear
5:35 PM 69.8 °F - 44.6 °F 40% 29.44 in 10.0 mi SW 9.2 mph - N/A   Clear
5:55 PM 71.6 °F - 42.8 °F 35% 29.44 in 10.0 mi SW 6.9 mph - N/A   Clear
6:15 PM 71.6 °F - 42.8 °F 35% 29.42 in 10.0 mi SW 8.1 mph - N/A   Clear
6:34 PM 69.8 °F - 42.8 °F 38% 29.42 in 10.0 mi SW 6.9 mph - N/A   Clear
6:55 PM 69.8 °F - 41.0 °F 35% 29.42 in 10.0 mi WSW 9.2 mph - N/A   Clear
7:15 PM 69.8 °F - 35.6 °F 28% 29.42 in 10.0 mi West 13.8 mph 25.3 mph N/A   Clear
7:34 PM 68.0 °F - 39.2 °F 35% 29.44 in 10.0 mi West 15.0 mph 24.2 mph N/A   Clear
7:55 PM 60.8 °F - 46.4 °F 59% 29.47 in 10.0 mi NNW 27.6 mph 35.7 mph N/A   Clear
8:15 PM 57.2 °F - 42.8 °F 59% 29.49 in 10.0 mi NNW 18.4 mph 29.9 mph N/A   Clear
8:34 PM 55.4 °F - 42.8 °F 63% 29.51 in 10.0 mi NNW 26.5 mph 32.2 mph N/A   Clear
8:55 PM 53.6 °F - 41.0 °F 62% 29.55 in 10.0 mi NNW 25.3 mph 31.1 mph N/A   Clear
9:15 PM 51.8 °F - 37.4 °F 58% 29.56 in 10.0 mi NNW 20.7 mph 29.9 mph N/A   Clear
9:34 PM 50.0 °F - 37.4 °F 62% 29.58 in 10.0 mi NNW 21.9 mph 32.2 mph N/A   Clear
9:55 PM 50.0 °F - 39.2 °F 66% 29.61 in 10.0 mi NNW 20.7 mph 26.5 mph N/A   Clear
10:15 PM 48.2 °F - 39.2 °F 71% 29.61 in 10.0 mi NW 16.1 mph 25.3 mph N/A   Clear
10:34 PM 46.4 °F 40.1 °F 37.4 °F 71% 29.63 in 10.0 mi NNW 15.0 mph - N/A   Clear
10:55 PM 46.4 °F 40.4 °F 37.4 °F 71% 29.63 in 10.0 mi NW 13.8 mph - N/A   Clear
11:15 PM 46.4 °F 41.5 °F 35.6 °F 66% 29.64 in 10.0 mi NW 10.4 mph 19.6 mph N/A   Clear
11:34 PM 44.6 °F 37.8 °F 33.8 °F 66% 29.64 in 10.0 mi NNW 15.0 mph 18.4 mph N/A   Clear
11:55 PM 44.6 °F 38.4 °F 33.8 °F 66% 29.65 in 10.0 mi NW 12.7 mph - N/A   Clear